TimeMST,TemperatureF,Dew PointF,Humidity,Sea Level PressureIn,VisibilityMPH,Wind Direction,Wind SpeedMPH,Gust SpeedMPH,PrecipitationIn,Events,Conditions,WindDirDegrees,DateUTC
12:53 AM,28.0,15.1,58,29.96,10.0,SW,18.4,-,N/A,,Partly Cloudy,230,2012-12-10 07:53:00
1:53 AM,27.0,15.1,61,29.95,10.0,SW,21.9,-,N/A,,Clear,230,2012-12-10 08:53:00
2:53 AM,27.0,15.1,61,29.97,10.0,SW,17.3,-,N/A,,Clear,230,2012-12-10 09:53:00
3:53 AM,28.0,16.0,61,29.96,10.0,SW,17.3,-,N/A,,Overcast,220,2012-12-10 10:53:00
4:53 AM,30.0,18.0,61,29.96,10.0,WSW,12.7,-,N/A,,Overcast,250,2012-12-10 11:53:00
5:53 AM,30.2,19.4,64,29.84,10.0,WSW,13.8,-,N/A,,Overcast,240,2012-12-10 12:53:00
6:53 AM,32.0,19.0,59,30.01,10.0,WNW,9.2,-,N/A,,Overcast,290,2012-12-10 13:53:00
7:53 AM,30.9,17.1,57,30.02,10.0,West,8.1,-,N/A,,Overcast,280,2012-12-10 14:53:00
8:53 AM,30.9,17.1,57,30.03,10.0,West,15.0,-,N/A,,Overcast,270,2012-12-10 15:53:00
9:53 AM,30.0,18.0,61,30.05,10.0,West,12.7,-,N/A,,Scattered Clouds,270,2012-12-10 16:53:00
10:53 AM,32.0,19.0,59,30.04,10.0,West,15.0,-,N/A,,Clear,270,2012-12-10 17:53:00
11:53 AM,34.0,19.9,56,30.02,10.0,West,18.4,-,N/A,,Clear,260,2012-12-10 18:53:00
12:53 PM,35.1,21.0,57,30.01,10.0,West,18.4,-,N/A,,Clear,270,2012-12-10 19:53:00
1:53 PM,35.1,21.0,57,30.01,10.0,West,16.1,-,N/A,,Clear,260,2012-12-10 20:53:00
2:53 PM,33.1,19.9,59,30.00,10.0,West,12.7,-,N/A,,Clear,260,2012-12-10 21:53:00
3:53 PM,30.9,19.0,61,30.02,10.0,WSW,12.7,-,N/A,,Clear,250,2012-12-10 22:53:00
4:53 PM,27.0,16.0,63,30.03,10.0,WSW,12.7,-,N/A,,Clear,240,2012-12-10 23:53:00
5:53 PM,28.0,16.0,61,30.03,10.0,WSW,11.5,-,N/A,,Overcast,240,2012-12-11 00:53:00
6:53 PM,25.0,15.1,66,30.03,10.0,SW,10.4,-,N/A,,Mostly Cloudy,220,2012-12-11 01:53:00
7:53 PM,23.0,14.0,68,30.04,10.0,SSW,15.0,-,N/A,,Clear,210,2012-12-11 02:53:00
8:53 PM,23.0,12.9,65,30.03,10.0,SSW,15.0,-,N/A,,Clear,210,2012-12-11 03:53:00
9:53 PM,24.1,14.0,65,30.01,10.0,SSW,13.8,-,N/A,,Clear,210,2012-12-11 04:53:00
10:53 PM,24.1,14.0,65,29.99,10.0,SSW,13.8,-,N/A,,Clear,210,2012-12-11 05:53:00
11:53 PM,26.1,16.0,66,29.96,10.0,SSW,13.8,-,N/A,,Clear,210,2012-12-11 06:53:00